sat.trackr.live / text

‹ back to catalog

JCSAT-110A (JCSAT-15)

NORAD 41903 · 2016-082A

PAYLOAD ACTIVE UNKNOWN

§ Identity

Operator
Country
JPN
Launch date
2016-12-21
Launch site
FRGUI
Launch vehicle
Mass (kg)
RCS (m²)
71.04

Purposes: comms

External: N2YO · Heavens-Above · Gunter

§ Orbital elements

Epoch: 2026-09-11T23:44:38.670144Z

Period
1,436.12 min
Inclination
0.0185°
Eccentricity
0.0000589
Mean motion
1.00270413 rev/d
Perigee alt
35,784.5 km
Apogee alt
35,789.5 km
Semi-major
42,165.1 km
B*
0.0000e+0
RAAN
144.8173°
Arg perigee
41.5782°
Mean anomaly
270.8363°
Rev number
3,562

§ Raw data

JCSAT-110A (JCSAT-15)1 41903U 16082A   26254.98933646 -.00000366  00000+0  00000+0 0  99952 41903   0.0185 144.8173 0000589  41.5782 270.8363  1.00270413 35623

JSON: /api/v1/satellites/41903 · /tle

For live sub-satellite position, see the globe view (requires WebGL).

§ Visibility from observer

Set your observer location to see the next 7 days of passes ≥ 10°. The values pass through the URL so the page stays shareable.

No JS? Fill the form by hand. The geolocation button needs JavaScript.